McGuire AFB, NJ

4:25 PM EDT on April 28, 2017 (GMT -0400)
McGuire Air Force Base

Weather History for KWRI - January, 2013

Change the Weather History Date:

Friday, January 4, 2013

  Actual Average Record
Temperature  
Mean Temperature 32 °F -  
Max Temperature 37 °F 41 °F 68 °F (2000)
Min Temperature 26 °F 25 °F -1 °F (2014)
Degree Days  
Heating Degree Days 34    
Moisture  
Dew Point 20 °F    
Average Humidity 59    
Maximum Humidity 76    
Minimum Humidity 48    
Precipitation  
Precipitation 0.00 in - - ()
Sea Level Pressure  
Sea Level Pressure 30.07 in    
Wind  
Wind Speed 10 mph (West)    
Max Wind Speed 18 mph    
Max Gust Speed 26 mph    
Visibility 10 miles    
Events      
Averages and records for this station are not official NWS values.
T = Trace of Precipitation, MM = Missing Value Source: NWS Daily Summary

Daily Weather History Graph

Daily Weather History Graph

Search for Another Location

Airport or City:

Trip Planner

Search our weather history database for the weather conditions in past years. The results will help you decide how hot, cold, wet, or windy it might be!

Date:

Astronomy

Jan. 04, 2013 Rise Set
Actual Time 7:20 AM EST 4:46 PM EST
Civil Twilight 6:50 AM EST 5:16 PM EST
Nautical Twilight 6:16 AM EST 5:50 PM EST
Astronomical Twilight 5:43 AM EST 6:23 PM EST
Moon No Moon Rise 11:01 AM EST (1/4)
Length of Visible Light 10h 26m
Length of Day
9h 26m
Waning Gibbous, 55% of the Moon is Illuminated
Jan 4
Waning Gibbous
Jan 4
Last Quarter
Jan 11
New
Jan 18
First Quarter
Jan 26
Full

Hourly Weather History & Observations

Time (EST) Temp. Windchill Dew Point Humidity Pressure Visibility Wind Dir Wind Speed Gust Speed Precip Events Conditions
12:55 AM 28.8 °F 21.7 °F 20.7 °F 72% 30.10 in 10.0 mi WSW 6.9 mph - N/A   Overcast
1:55 AM 26.4 °F 18.0 °F 19.8 °F 76% 30.10 in 10.0 mi WSW 8.1 mph - N/A   Clear
2:55 AM 26.4 °F 20.9 °F 19.0 °F 74% 30.10 in 10.0 mi WSW 4.6 mph - N/A   Clear
3:55 AM 27.7 °F 20.4 °F 19.6 °F 72% 30.11 in 10.0 mi West 6.9 mph - N/A   Mostly Cloudy
4:55 AM 29.8 °F 23.0 °F 19.8 °F 66% 30.11 in 10.0 mi WSW 6.9 mph - N/A   Overcast
5:55 AM 32.5 °F 24.8 °F 19.8 °F 59% 30.11 in 10.0 mi WSW 9.2 mph - N/A   Overcast
6:55 AM 30.7 °F 22.0 °F 19.2 °F 62% 30.12 in 10.0 mi WSW 10.4 mph - N/A   Partly Cloudy
7:55 AM 32.2 °F 24.4 °F 20.1 °F 61% 30.12 in 10.0 mi WSW 9.2 mph - N/A   Overcast
8:55 AM 33.4 °F 24.3 °F 19.9 °F 58% 30.12 in 10.0 mi West 12.7 mph - N/A   Overcast
9:55 AM 34.3 °F 25.5 °F 19.9 °F 56% 30.12 in 10.0 mi West 12.7 mph - N/A   Overcast
10:55 AM 35.1 °F 26.4 °F 19.6 °F 53% 30.10 in 10.0 mi West 12.7 mph 19.6 mph N/A   Overcast
11:55 AM 35.4 °F 24.9 °F 19.4 °F 52% 30.08 in 10.0 mi WNW 18.4 mph 25.3 mph N/A   Overcast
12:55 PM 36.3 °F 26.4 °F 19.2 °F 50% 30.04 in 10.0 mi WNW 17.3 mph 25.3 mph N/A   Overcast
1:55 PM 37.6 °F 28.1 °F 19.9 °F 49% 30.02 in 10.0 mi West 17.3 mph 26.5 mph N/A   Scattered Clouds
2:55 PM 37.9 °F 29.2 °F 19.9 °F 48% 30.01 in 10.0 mi WNW 15.0 mph 20.7 mph N/A   Clear
3:55 PM 37.4 °F 28.2 °F 19.6 °F 49% 30.01 in 10.0 mi West 16.1 mph 24.2 mph N/A   Clear
4:55 PM 35.4 °F 27.8 °F 19.9 °F 53% 30.00 in 10.0 mi West 10.4 mph - N/A   Clear
5:55 PM 35.2 °F 27.1 °F 20.7 °F 55% 30.01 in 10.0 mi West 11.5 mph - N/A   Clear
6:55 PM 34.7 °F 28.8 °F 20.5 °F 56% 30.02 in 10.0 mi West 6.9 mph - N/A   Clear
7:55 PM 35.1 °F 27.9 °F 20.1 °F 55% 30.02 in 10.0 mi West 9.2 mph - N/A   Clear
8:55 PM 33.4 °F 26.6 °F 20.1 °F 58% 30.03 in 10.0 mi West 8.1 mph - N/A   Clear
9:55 PM 32.5 °F 24.8 °F 20.5 °F 61% 30.04 in 10.0 mi West 9.2 mph - N/A   Clear
10:55 PM 32.7 °F 24.5 °F 20.3 °F 60% 30.05 in 10.0 mi West 10.4 mph - N/A   Clear
11:55 PM 31.6 °F 23.7 °F 20.5 °F 63% 30.05 in 10.0 mi WSW 9.2 mph - N/A   Clear